Weather History for KLCG - June, 2013

Change the Weather History Date:

Tuesday, June 11, 2013

  Actual Average (KOFK) Record (KOFK)
Temperature  
Mean Temperature 76 °F 69 °F  
Max Temperature 88 °F 81 °F 101 °F (1926)
Min Temperature 64 °F 57 °F 35 °F (1903)
Degree Days  
Heating Degree Days 0 1  
Month to date heating degree days 20  
Since 1 June heating degree days 20  
Since 1 July heating degree days 6633  
Cooling Degree Days 11 5  
Month to date cooling degree days 45  
Year to date cooling degree days 106  
Since 1 June cooling degree days 45  
Growing Degree Days 26 (Base 50)    
Moisture  
Dew Point 66 °F    
Average Humidity 72    
Maximum Humidity 95    
Minimum Humidity 46    
Precipitation  
Precipitation 0.00 in 0.15 in 2.20 in (1998)
Month to date precipitation 1.61  
Year to date precipitation 11.31  
Snow  
Snow 0.00 in 0.00 in - ()
Month to date snowfall 0.0  
Since 1 July snowfall 30.5  
Snow Depth -    
Sea Level Pressure  
Sea Level Pressure 29.77 in    
Wind  
Wind Speed 10 mph (ESE)    
Max Wind Speed 26 mph    
Max Gust Speed 32 mph    
Visibility 10 miles    
Events      
T = Trace of Precipitation, MM = Missing Value Source: NWS Daily Summary

Daily Weather History Graph

Daily Weather History Graph

Search for Another Location

Airport or City:

Trip Planner

Search our weather history database for the weather conditions in past years. The results will help you decide how hot, cold, wet, or windy it might be!

Date:

Astronomy

Jun. 11, 2013 Rise Set
Actual Time 5:51 AM CDT 9:04 PM CDT
Civil Twilight 5:16 AM CDT 9:38 PM CDT
Nautical Twilight 4:32 AM CDT 10:23 PM CDT
Astronomical Twilight 3:38 AM CDT 11:17 PM CDT
Moon 8:37 AM CDT (6/11) 11:05 PM CDT (6/11)
Length of Visible Light 16h 22m
Length of Day
15h 13m
Waxing Crescent, 8% of the Moon is Illuminated
Jun 11
Waxing Crescent
Jun 16
First Quarter
Jun 23
Full
Jun 29
Last Quarter
Jul 8
New

Hourly Weather History & Observations

Time (CDT) Temp. Heat Index Dew Point Humidity Pressure Visibility Wind Dir Wind Speed Gust Speed Precip Events Conditions
12:15 AM 67.5 °F - 62.6 °F 84% 29.83 in 10.0 mi SSE 8.1 mph - N/A   Clear
12:35 AM 67.6 °F - 62.6 °F 84% 29.83 in 10.0 mi SSE 8.1 mph - N/A   Clear
12:55 AM 67.3 °F - 62.6 °F 85% 29.83 in 10.0 mi SE 8.1 mph - N/A   Clear
1:15 AM 66.7 °F - 62.8 °F 87% 29.83 in 10.0 mi SSE 6.9 mph - N/A   Clear
1:35 AM 66.2 °F - 62.8 °F 89% 29.85 in 10.0 mi SSW 3.5 mph - N/A   Clear
1:55 AM 66.2 °F - 62.8 °F 89% 29.84 in 10.0 mi Calm Calm - N/A   Clear
2:15 AM 65.7 °F - 62.8 °F 90% 29.81 in 10.0 mi SE 3.5 mph - N/A   Clear
2:35 AM 66.7 °F - 63.5 °F 89% 29.80 in 10.0 mi SSE 6.9 mph - N/A   Clear
2:55 AM 66.7 °F - 63.5 °F 89% 29.76 in 10.0 mi SE 11.5 mph - N/A   Clear
3:44 AM 66.2 °F - 62.6 °F 88% 29.78 in 10.0 mi South 4.6 mph - N/A   Clear
3:55 AM 65.8 °F - 63.5 °F 92% 29.78 in 10.0 mi South 4.6 mph - N/A   Clear
4:15 AM 65.5 °F - 63.0 °F 92% 29.78 in 10.0 mi Calm Calm - N/A   Clear
4:35 AM 64.9 °F - 63.0 °F 93% 29.76 in 10.0 mi SSE 6.9 mph - N/A   Clear
4:55 AM 65.3 °F - 63.0 °F 92% 29.75 in 10.0 mi SSE 9.2 mph - N/A   Clear
5:15 AM 65.3 °F - 63.0 °F 92% 29.75 in 10.0 mi SSE 8.1 mph - N/A   Clear
5:35 AM 65.5 °F - 63.0 °F 92% 29.76 in 10.0 mi ENE 6.9 mph - N/A   Clear
5:55 AM 64.4 °F - 62.8 °F 94% 29.77 in 10.0 mi East 3.5 mph - N/A   Clear
6:15 AM 64.4 °F - 63.0 °F 95% 29.77 in 10.0 mi ENE 8.1 mph - N/A   Clear
6:35 AM 64.9 °F - 63.5 °F 95% 29.79 in 10.0 mi Calm Calm - N/A   Clear
6:55 AM 66.2 °F - 63.7 °F 92% 29.78 in 10.0 mi East 3.5 mph - N/A   Clear
7:15 AM 66.6 °F - 64.0 °F 92% 29.79 in 10.0 mi NE 8.1 mph - N/A   Clear
7:35 AM 66.9 °F - 64.4 °F 92% 29.79 in 10.0 mi ENE 8.1 mph - N/A   Clear
7:55 AM 68.0 °F - 64.4 °F 88% 29.79 in 10.0 mi East 5.8 mph - N/A   Clear
8:15 AM 69.1 °F - 64.8 °F 86% 29.79 in 10.0 mi ESE 9.2 mph - N/A   Clear
8:35 AM 69.8 °F - 64.8 °F 84% 29.80 in 10.0 mi ESE 8.1 mph - N/A   Clear
8:55 AM 71.2 °F - 65.3 °F 81% 29.80 in 10.0 mi ESE 8.1 mph - N/A   Clear
9:15 AM 71.6 °F - 65.3 °F 80% 29.80 in 10.0 mi ESE 6.9 mph - N/A   Clear
9:35 AM 73.0 °F - 65.8 °F 78% 29.79 in 10.0 mi ESE 8.1 mph - N/A   Clear
9:55 AM 75.2 °F - 66.2 °F 73% 29.78 in 10.0 mi East 9.2 mph - N/A   Clear
10:15 AM 77.0 °F - 66.9 °F 71% 29.79 in 10.0 mi East 9.2 mph - N/A   Clear
10:35 AM 78.6 °F - 67.3 °F 68% 29.80 in 10.0 mi ENE 11.5 mph - N/A   Clear
10:55 AM 79.3 °F - 67.6 °F 67% 29.81 in 10.0 mi East 10.4 mph 16.1 mph N/A   Clear
11:15 AM 81.7 °F 84.5 °F 67.8 °F 63% 29.81 in 10.0 mi NE 12.7 mph 17.3 mph N/A   Clear
11:35 AM 81.7 °F 84.7 °F 68.5 °F 64% 29.83 in 10.0 mi ENE 11.5 mph 16.1 mph N/A   Clear
11:55 AM 82.0 °F 85.1 °F 68.5 °F 63% 29.83 in 10.0 mi NE 12.7 mph - N/A   Clear
12:15 PM 82.8 °F 86.0 °F 68.4 °F 62% 29.82 in 10.0 mi NE 13.8 mph 19.6 mph N/A   Clear
12:35 PM 84.7 °F 88.2 °F 68.7 °F 58% 29.81 in 10.0 mi East 19.6 mph 25.3 mph N/A   Clear
12:55 PM 84.9 °F 88.2 °F 68.0 °F 57% 29.81 in 10.0 mi ENE 20.7 mph 25.3 mph N/A   Clear
1:15 PM 85.8 °F 88.5 °F 66.9 °F 53% 29.80 in 10.0 mi East 17.3 mph 27.6 mph N/A   Clear
1:35 PM 87.8 °F 89.4 °F 64.9 °F 46% 29.79 in 10.0 mi East 20.7 mph 25.3 mph N/A   Clear
1:55 PM 86.4 °F 88.4 °F 65.7 °F 50% 29.77 in 10.0 mi ESE 23.0 mph 31.1 mph N/A   Clear
2:15 PM 87.1 °F 89.2 °F 65.8 °F 49% 29.76 in 10.0 mi ESE 26.5 mph - N/A   Clear
2:35 PM 88.0 °F 91.0 °F 67.3 °F 50% 29.74 in 10.0 mi ESE 26.5 mph 32.2 mph N/A   Clear
2:55 PM 88.5 °F 91.6 °F 67.1 °F 49% 29.74 in 10.0 mi ESE 25.3 mph 32.2 mph N/A   Clear
3:15 PM 88.2 °F 91.7 °F 68.0 °F 51% 29.74 in 10.0 mi East 21.9 mph 29.9 mph N/A   Clear
3:35 PM 86.2 °F 89.7 °F 68.2 °F 55% 29.73 in 10.0 mi ESE 21.9 mph 31.1 mph N/A   Scattered Clouds
3:55 PM 86.4 °F 90.0 °F 68.7 °F 55% 29.75 in 10.0 mi ESE 18.4 mph 24.2 mph N/A   Clear
4:15 PM 88.2 °F 92.5 °F 69.1 °F 53% 29.76 in 10.0 mi SE 19.6 mph 27.6 mph N/A   Clear
4:35 PM 87.8 °F 91.8 °F 68.9 °F 53% 29.74 in 10.0 mi ESE 18.4 mph 24.2 mph N/A   Scattered Clouds
4:55 PM 88.5 °F 93.1 °F 69.6 °F 53% 29.74 in 10.0 mi ESE 15.0 mph - N/A   Scattered Clouds
5:15 PM 88.3 °F 92.8 °F 69.3 °F 53% 29.75 in 10.0 mi ESE 16.1 mph 21.9 mph N/A   Scattered Clouds
5:35 PM 87.8 °F 91.8 °F 68.9 °F 53% 29.76 in 10.0 mi ESE 17.3 mph 21.9 mph N/A   Scattered Clouds
5:55 PM 88.2 °F 92.9 °F 69.4 °F 54% 29.74 in 10.0 mi East 16.1 mph 20.7 mph N/A   Scattered Clouds
6:15 PM 86.4 °F 90.7 °F 69.4 °F 57% 29.73 in 10.0 mi East 15.0 mph 21.9 mph N/A   Clear
6:35 PM 87.3 °F 89.2 °F 65.1 °F 48% 29.73 in 10.0 mi SE 13.8 mph 18.4 mph N/A   Clear
6:55 PM 87.8 °F 90.0 °F 65.7 °F 48% 29.72 in 10.0 mi SE 12.7 mph - N/A   Clear
7:15 PM 86.0 °F 87.1 °F 63.5 °F 47% 29.72 in 10.0 mi SE 15.0 mph - N/A   Clear
7:35 PM 84.2 °F 86.6 °F 66.6 °F 55% 29.72 in 10.0 mi ESE 11.5 mph 18.4 mph N/A   Clear
7:55 PM 82.4 °F 86.3 °F 69.8 °F 66% 29.73 in 10.0 mi East 11.5 mph 17.3 mph N/A   Clear
8:15 PM 82.4 °F 86.1 °F 69.6 °F 65% 29.70 in 10.0 mi ESE 17.3 mph 21.9 mph N/A   Clear
8:35 PM 82.2 °F 86.0 °F 69.8 °F 66% 29.70 in 10.0 mi ESE 16.1 mph - N/A   Clear
8:55 PM 81.0 °F 83.4 °F 67.3 °F 63% 29.71 in 10.0 mi ESE 12.7 mph - N/A   Clear
9:15 PM 79.7 °F - 67.5 °F 66% 29.72 in 10.0 mi East 10.4 mph - N/A   Clear
9:35 PM 78.8 °F - 69.4 °F 73% 29.72 in 10.0 mi East 12.7 mph - N/A   Clear
9:55 PM 77.9 °F - 68.9 °F 74% 29.72 in 10.0 mi East 12.7 mph - N/A   Clear
10:15 PM 77.4 °F - 68.5 °F 74% 29.71 in 10.0 mi East 13.8 mph - N/A   Clear
10:35 PM 77.0 °F - 68.4 °F 75% 29.71 in 10.0 mi East 13.8 mph 19.6 mph N/A   Clear
10:55 PM 76.6 °F - 68.0 °F 75% 29.73 in 10.0 mi East 13.8 mph 19.6 mph N/A   Clear
11:15 PM 76.1 °F - 67.6 °F 75% 29.77 in 10.0 mi ENE 10.4 mph - N/A   Clear
11:35 PM 76.1 °F - 66.7 °F 73% 29.76 in 10.0 mi East 11.5 mph - N/A   Clear
11:55 PM 76.6 °F - 66.2 °F 70% 29.73 in 10.0 mi East 13.8 mph 19.6 mph N/A   Clear